Airport Information

KCLM - William R Fairchild International Airport

KCLM 191853Z AUTO 30016G26KT 10SM CLR 14/08 A3019 RMK AO2 PK WND 28026/1851 SLP223 T01390083


  • General Information

  • Coordinates: N 48°7'12"/ W 123°30'0"
  • Location: N/A
  • Surveyed Elevation: 291 MSL

Operations

Flow Name Active Runways Conditions

Green background denotes normal operations.


Common Frequencies

Callsign Frequency Position Name

More at the Document Center


Charts